Hauptseite
METAR-TAF:

METAR-TAF

Flughäfen :

Militärflugplatz Payerne

Payerne, Schweiz

Breite: 46-49N, Länge: 006-57E, Höhe: 490 m

Beobachtung

Neuester Wetterbericht von vor 12 Minuten, um 13:20 UTC
Wind 2 kt aus unterschiedlichen Richtungen
Temperatur 21°C
Luftfeuchtigkeit 40%
Luftdruck 1013 hPa
Sichtweite 10 km oder mehr
keine Wolken unter 1500 m und keine Kumulonimbus oder Gewitterwolken

METAR: LSMP 151320Z VRB02KT CAVOK 21/07 Q1013 RMK BLU

Zeit: 15:32 (13:32 UTC)


TAF: fehlend

Wetterbeobachtungen und Prognosen von mehr als 4000 Flughäfen (METAR und TAF Bericht).

Die verfügbaren Stationen werden durch gelbe und rote Markierungen auf der Karte dargestellt.

Führen Sie die Maus auf sie, um den Namen der Station zu sehen.

Darauf klicken, um die Beobachtung von Wetterbeobachtungen und Prognosen zu sehen.

Um die Karte zu ändern : klicken Sie auf den grünen Tasten mit einem schwarzen Kreuz Zum Vergrößern, auf den grünen Button mit einem Gedankenstrich zu verkleinern, oder auf die grünen Pfeile für benachbarte Karten.


METAR-TAF: